| time (UTC) | temp F | wind direction | speed knots | gust knots | rain 1hr in | rain 24hr in | rain mn in | humidity % | barometer mb |
| 20260507143104 | 47 | 301 | 5.2 | 10.4 | 0.00 | 0.00 | 0.00 | 63 | 1012.2 |
| 20260507141607 | 47 | 257 | 3.5 | 7.8 | 0.00 | 0.00 | 0.00 | 62 | 1012.2 |
| 20260507134555 | 46 | 248 | 3.5 | 8.7 | 0.00 | 0.00 | 0.00 | 63 | 1012.3 |
| 20260507133056 | 46 | 292 | 2.6 | 7.0 | 0.00 | 0.00 | 0.00 | 65 | 1012.2 |
| 20260507131555 | 45 | 266 | 1.7 | 6.1 | 0.00 | 0.00 | 0.00 | 68 | 1012.3 |
| 20260507130107 | 43 | 234 | 1.7 | 5.2 | 0.00 | 0.00 | 0.00 | 73 | 1012.2 |
| 20260507124600 | 41 | 244 | 0.0 | 3.5 | 0.00 | 0.00 | 0.00 | 81 | 1012.1 |
| 20260507123056 | 40 | 0 | 0.0 | 0.9 | 0.00 | 0.00 | 0.00 | 85 | 1012.2 |
| 20260507121557 | 38 | 334 | 0.0 | 0.0 | 0.00 | 0.00 | 0.00 | 88 | 1012.2 |
| 20260507120056 | 37 | 0 | 0.0 | 0.0 | 0.00 | 0.00 | 0.00 | 91 | 1012.2 |
| 20260507114550 | 36 | 0 | 0.0 | 0.0 | 0.00 | 0.00 | 0.00 | 91 | 1012.1 |
| 20260507113052 | 35 | 0 | 0.0 | 0.0 | 0.00 | 0.00 | 0.00 | 92 | 1012.1 |
| 20260507111550 | 34 | 0 | 0.0 | 0.0 | 0.00 | 0.00 | 0.00 | 92 | 1012.0 |
| 20260507110059 | 33 | 0 | 0.0 | 0.0 | 0.00 | 0.00 | 0.00 | 92 | 1011.7 |
| 20260507104600 | 33 | 0 | 0.0 | 0.0 | 0.00 | 0.00 | 0.00 | 91 | 1011.7 |
| 20260507103127 | 33 | 0 | 0.0 | 0.0 | 0.00 | 0.00 | 0.00 | 90 | 1011.5 |
| 20260507101554 | 34 | 0 | 0.0 | 0.0 | 0.00 | 0.00 | 0.00 | 90 | 1011.5 |
| 20260507100106 | 34 | 0 | 0.0 | 0.0 | 0.00 | 0.00 | 0.00 | 90 | 1011.5 |
| 20260507094551 | 34 | 0 | 0.0 | 0.0 | 0.00 | 0.00 | 0.00 | 89 | 1011.5 |
| 20260507093053 | 35 | 0 | 0.0 | 0.0 | 0.00 | 0.00 | 0.00 | 89 | 1011.5 |
| 20260507091552 | 35 | 0 | 0.0 | 0.0 | 0.00 | 0.00 | 0.00 | 88 | 1011.6 |
| 20260507090057 | 36 | 0 | 0.0 | 0.0 | 0.00 | 0.00 | 0.00 | 87 | 1011.7 |
| 20260507084603 | 36 | 0 | 0.0 | 0.0 | 0.00 | 0.00 | 0.00 | 88 | 1011.8 |
| 20260507083050 | 36 | 0 | 0.0 | 0.0 | 0.00 | 0.00 | 0.00 | 87 | 1011.8 |
| 20260507081558 | 36 | 0 | 0.0 | 0.0 | 0.00 | 0.00 | 0.00 | 87 | 1011.8 |
| 20260507080057 | 36 | 0 | 0.0 | 0.0 | 0.00 | 0.00 | 0.00 | 87 | 1011.9 |
| 20260507074602 | 36 | 0 | 0.0 | 0.0 | 0.00 | 0.00 | 0.00 | 86 | 1011.7 |
| 20260507073051 | 36 | 0 | 0.0 | 0.0 | 0.00 | 0.00 | 0.00 | 86 | 1011.9 |
| 20260507071559 | 36 | 0 | 0.0 | 0.0 | 0.00 | 0.00 | 0.00 | 86 | 1011.9 |
| 20260507070106 | 36 | 0 | 0.0 | 0.9 | 0.00 | 0.00 | 0.00 | 85 | 1011.9 |
| 20260507064555 | 37 | 0 | 0.0 | 0.0 | 0.00 | 0.00 | 0.00 | 86 | 1011.9 |
| 20260507063053 | 37 | 0 | 0.0 | 0.0 | 0.00 | 0.00 | 0.00 | 85 | 1012.0 |
| 20260507061554 | 38 | 0 | 0.0 | 0.0 | 0.00 | 0.00 | 0.00 | 83 | 1012.0 |
| 20260507060101 | 39 | 0 | 0.0 | 0.9 | 0.00 | 0.00 | 0.00 | 81 | 1012.1 |
| 20260507054609 | 40 | 0 | 0.0 | 0.0 | 0.00 | 0.00 | 0.00 | 77 | 1012.1 |
| 20260507053103 | 41 | 0 | 0.0 | 2.6 | 0.00 | 0.00 | 0.00 | 76 | 1012.0 |
| 20260507051558 | 42 | 173 | 1.7 | 2.6 | 0.00 | 0.00 | 0.00 | 73 | 1012.1 |
| 20260507050059 | 44 | 0 | 0.0 | 0.0 | 0.00 | 0.00 | 0.00 | 71 | 1012.0 |
| 20260507044558 | 44 | 0 | 0.0 | 0.9 | 0.00 | 0.00 | 0.00 | 69 | 1011.9 |
| 20260507043055 | 45 | 0 | 0.0 | 0.0 | 0.00 | 0.00 | 0.00 | 61 | 1011.9 |
| 20260507041603 | 46 | 0 | 0.0 | 0.0 | 0.00 | 0.00 | 0.00 | 61 | 1011.9 |
| 20260507040055 | 47 | 0 | 0.0 | 0.9 | 0.00 | 0.00 | 0.00 | 55 | 1012.1 |
| 20260507034552 | 47 | 0 | 0.0 | 1.7 | 0.00 | 0.00 | 0.00 | 58 | 1012.1 |
| 20260507033054 | 47 | 265 | 0.9 | 2.6 | 0.00 | 0.00 | 0.00 | 54 | 1012.2 |
| 20260507031550 | 48 | 264 | 0.0 | 2.6 | 0.00 | 0.00 | 0.00 | 53 | 1012.2 |
| 20260507030051 | 48 | 263 | 1.7 | 2.6 | 0.00 | 0.00 | 0.00 | 51 | 1012.2 |
| 20260507024555 | 48 | 229 | 0.9 | 2.6 | 0.00 | 0.00 | 0.00 | 53 | 1012.1 |
| 20260507023054 | 48 | 246 | 0.9 | 2.6 | 0.00 | 0.00 | 0.00 | 50 | 1012.0 |
| 20260507021629 | 48 | 230 | 0.9 | 3.5 | 0.00 | 0.00 | 0.00 | 50 | 1012.0 |
| 20260507020109 | 49 | 228 | 1.7 | 4.3 | 0.00 | 0.00 | 0.00 | 51 | 1011.8 |
| 20260507014620 | 49 | 219 | 0.9 | 3.5 | 0.00 | 0.00 | 0.00 | 50 | 1011.9 |
| 20260507013053 | 49 | 249 | 0.9 | 3.5 | 0.00 | 0.00 | 0.00 | 53 | 1011.7 |
| 20260507011559 | 49 | 0 | 0.0 | 2.6 | 0.00 | 0.00 | 0.00 | 53 | 1011.7 |
| 20260507010054 | 49 | 198 | 0.9 | 2.6 | 0.00 | 0.00 | 0.00 | 51 | 1011.5 |
| 20260507004550 | 49 | 207 | 0.0 | 2.6 | 0.00 | 0.00 | 0.00 | 56 | 1011.7 |
| 20260507003055 | 50 | 254 | 0.0 | 1.7 | 0.00 | 0.00 | 0.00 | 54 | 1011.5 |
| 20260507001601 | 50 | 254 | 0.9 | 1.7 | 0.00 | 0.00 | 0.00 | 53 | 1011.3 |
| 20260507000123 | 50 | 0 | 0.0 | 1.7 | 0.00 | 0.00 | 0.00 | 51 | 1011.2 |
| 20260506234615 | 51 | 0 | 0.0 | 1.7 | 0.00 | 0.00 | 0.00 | 52 | 1011.4 |
| 20260506233052 | 51 | 229 | 0.9 | 2.6 | 0.00 | 0.00 | 0.00 | 49 | 1011.4 |
| 20260506231551 | 51 | 191 | 1.7 | 7.0 | 0.00 | 0.00 | 0.00 | 48 | 1011.2 |
| 20260506224558 | 51 | 211 | 2.6 | 8.7 | 0.00 | 0.00 | 0.00 | 44 | 1011.3 |
| 20260506223050 | 51 | 240 | 3.5 | 8.7 | 0.00 | 0.00 | 0.00 | 45 | 1011.5 |
| 20260506221601 | 51 | 241 | 2.6 | 7.0 | 0.00 | 0.00 | 0.00 | 45 | 1011.7 |
| 20260506220052 | 51 | 221 | 3.5 | 8.7 | 0.00 | 0.00 | 0.00 | 47 | 1011.5 |
| 20260506214551 | 51 | 291 | 3.5 | 9.6 | 0.00 | 0.00 | 0.00 | 47 | 1011.4 |
| 20260506213055 | 51 | 265 | 5.2 | 10.4 | 0.00 | 0.00 | 0.00 | 45 | 1011.5 |
| 20260506211554 | 51 | 323 | 3.5 | 10.4 | 0.00 | 0.00 | 0.00 | 47 | 1011.4 |
| 20260506210054 | 51 | 182 | 4.3 | 8.7 | 0.00 | 0.00 | 0.00 | 45 | 1011.5 |
| 20260506204553 | 51 | 273 | 4.3 | 9.6 | 0.00 | 0.00 | 0.00 | 46 | 1011.5 |
| 20260506203052 | 51 | 258 | 6.1 | 9.6 | 0.00 | 0.00 | 0.00 | 47 | 1011.5 |
| 20260506201553 | 51 | 267 | 3.5 | 12.2 | 0.00 | 0.00 | 0.00 | 45 | 1011.6 |
| 20260506200055 | 50 | 271 | 3.5 | 8.7 | 0.00 | 0.00 | 0.00 | 46 | 1011.7 |
| 20260506194554 | 50 | 277 | 2.6 | 7.8 | 0.00 | 0.00 | 0.00 | 45 | 1011.7 |
| 20260506193055 | 50 | 254 | 2.6 | 7.8 | 0.00 | 0.00 | 0.00 | 47 | 1011.8 |
| 20260506191558 | 50 | 317 | 4.3 | 7.8 | 0.00 | 0.00 | 0.00 | 46 | 1012.0 |
| 20260506190056 | 50 | 277 | 4.3 | 9.6 | 0.00 | 0.00 | 0.00 | 47 | 1012.1 |
| 20260506184558 | 50 | 302 | 3.5 | 10.4 | 0.00 | 0.00 | 0.00 | 46 | 1012.0 |
| 20260506183102 | 49 | 349 | 3.5 | 8.7 | 0.00 | 0.00 | 0.00 | 48 | 1012.1 |
| 20260506181605 | 49 | 250 | 3.5 | 9.6 | 0.00 | 0.00 | 0.00 | 47 | 1012.1 |
| 20260506180055 | 49 | 246 | 1.7 | 8.7 | 0.00 | 0.00 | 0.00 | 49 | 1012.1 |
| 20260506174609 | 48 | 229 | 4.3 | 9.6 | 0.00 | 0.00 | 0.00 | 49 | 1012.3 |
| 20260506173125 | 48 | 257 | 4.3 | 11.3 | 0.00 | 0.00 | 0.00 | 48 | 1012.5 |
| 20260506171552 | 48 | 9 | 3.5 | 10.4 | 0.00 | 0.00 | 0.00 | 51 | 1012.3 |
| 20260506170104 | 48 | 223 | 0.9 | 7.8 | 0.00 | 0.00 | 0.00 | 53 | 1012.3 |
| 20260506164551 | 47 | 325 | 3.5 | 8.7 | 0.00 | 0.00 | 0.00 | 55 | 1012.3 |
| 20260506163056 | 47 | 325 | 0.9 | 8.7 | 0.00 | 0.00 | 0.00 | 57 | 1012.5 |
| 20260506161552 | 46 | 147 | 1.7 | 7.8 | 0.00 | 0.00 | 0.00 | 60 | 1012.6 |
| 20260506160053 | 46 | 47 | 1.7 | 7.8 | 0.00 | 0.00 | 0.00 | 59 | 1012.7 |
| 20260506154609 | 46 | 26 | 2.6 | 7.8 | 0.00 | 0.00 | 0.00 | 61 | 1012.5 |
| 20260506153056 | 45 | 296 | 2.6 | 9.6 | 0.00 | 0.00 | 0.00 | 63 | 1012.4 |
| 20260506151554 | 45 | 325 | 5.2 | 9.6 | 0.00 | 0.00 | 0.00 | 64 | 1012.4 |
| 20260506150054 | 45 | 68 | 0.9 | 7.0 | 0.00 | 0.00 | 0.00 | 65 | 1012.3 |
| 20260506144556 | 45 | 350 | 2.6 | 5.2 | 0.00 | 0.00 | 0.00 | 64 | 1012.2 |